Station Historical Data
Daily Summary for April 10, 2017 Units:  English    Metric   Both
« Previous Day
Next Day »
Daily Weekly Monthly Yearly Custom
  High: Low: Average:
Temperature: 58.7 °F 37.5 °F 46.2 °F
Dew Point: 43.3 °F 29.6 °F 37.5 °F
Humidity: 92 % 52 % 73 %
Wind Speed: 13.0 mph 0.0 mph 2.3 mph
Wind Gust: 15.0 mph - -
Wind:- - SSE
Pressure: 30.28 in 30.12 in -
Precipitation: 0.00 in    
Historical Graphs
 
 
Tabular Data for April 10, 2017
Time Temperature Dew Point Pressure Wind Wind Speed Wind Gust Humidity Rainfall Rate (Hourly) solar
00:03 39.0 °F 35.5 °F 30.27 in East 1.0 mph 2.0 mph 87 % 0.00 in 0.00 W/m2
00:08 39.0 °F 35.5 °F 30.27 in ESE 1.0 mph 4.0 mph 87 % 0.00 in 0.00 W/m2
00:13 38.9 °F 35.4 °F 30.27 in Calm   2.0 mph 87 % 0.00 in 0.00 W/m2
00:18 38.9 °F 35.4 °F 30.27 in ESE 4.0 mph 12.0 mph 87 % 0.00 in 0.00 W/m2
00:23 38.8 °F 35.3 °F 30.27 in Calm   1.0 mph 87 % 0.00 in 0.00 W/m2
00:28 38.8 °F 35.3 °F 30.27 in East 1.0 mph 2.0 mph 87 % 0.00 in 0.00 W/m2
00:33 38.7 °F 35.2 °F 30.27 in Calm   12.0 mph 87 % 0.00 in 0.00 W/m2
00:38 38.7 °F 35.2 °F 30.27 in ESE 5.0 mph 9.0 mph 87 % 0.00 in 0.00 W/m2
00:43 38.7 °F 35.2 °F 30.27 in East 1.0 mph 11.0 mph 87 % 0.00 in 0.00 W/m2
00:48 38.7 °F 35.2 °F 30.27 in Calm   11.0 mph 87 % 0.00 in 0.00 W/m2
00:49 38.6 °F 35.1 °F 30.27 in ESE 5.0 mph 11.0 mph 87 % 0.00 in 0.00 W/m2
00:54 38.6 °F 35.1 °F 30.27 in ESE 1.0 mph 1.0 mph 87 % 0.00 in 0.00 W/m2
00:59 38.5 °F 35.0 °F 30.27 in Calm   11.0 mph 87 % 0.00 in 0.00 W/m2
01:04 38.5 °F 35.0 °F 30.27 in ESE 4.0 mph 12.0 mph 87 % 0.00 in 0.00 W/m2
01:09 38.4 °F 34.9 °F 30.27 in ESE 7.0 mph 11.0 mph 87 % 0.00 in 0.00 W/m2
01:14 38.4 °F 34.9 °F 30.27 in ESE 8.0 mph 11.0 mph 87 % 0.00 in 0.00 W/m2
01:19 38.4 °F 34.9 °F 30.27 in ESE 1.0 mph 13.0 mph 87 % 0.00 in 0.00 W/m2
01:25 38.3 °F 34.8 °F 30.27 in East 11.0 mph 12.0 mph 87 % 0.00 in 0.00 W/m2
01:30 38.3 °F 34.8 °F 30.28 in East 2.0 mph 12.0 mph 87 % 0.00 in 0.00 W/m2
01:35 38.3 °F 34.8 °F 30.28 in ESE 1.0 mph 12.0 mph 87 % 0.00 in 0.00 W/m2
01:40 38.3 °F 34.8 °F 30.28 in ESE 6.0 mph 8.0 mph 87 % 0.00 in 0.00 W/m2
01:45 38.4 °F 34.9 °F 30.28 in ESE 2.0 mph 9.0 mph 87 % 0.00 in 0.00 W/m2
01:50 38.4 °F 34.9 °F 30.28 in Calm   11.0 mph 87 % 0.00 in 0.00 W/m2
01:51 38.4 °F 34.9 °F 30.28 in Calm   1.0 mph 87 % 0.00 in 0.00 W/m2
01:56 38.4 °F 34.9 °F 30.28 in ESE 5.0 mph 9.0 mph 87 % 0.00 in 0.00 W/m2
02:01 38.4 °F 35.2 °F 30.28 in ESE 2.0 mph 7.0 mph 88 % 0.00 in 0.00 W/m2
02:06 38.4 °F 35.2 °F 30.28 in ESE 6.0 mph 7.0 mph 88 % 0.00 in 0.00 W/m2
02:11 38.4 °F 34.9 °F 30.28 in Calm   7.0 mph 87 % 0.00 in 0.00 W/m2
02:16 38.5 °F 35.0 °F 30.28 in Calm   4.0 mph 87 % 0.00 in 0.00 W/m2
02:21 38.5 °F 35.0 °F 30.28 in Calm     87 % 0.00 in 0.00 W/m2
02:26 38.5 °F 35.0 °F 30.28 in Calm     87 % 0.00 in 0.00 W/m2
02:31 38.5 °F 35.0 °F 30.28 in Calm     87 % 0.00 in 0.00 W/m2
02:37 38.4 °F 34.9 °F 30.28 in ESE 1.0 mph 8.0 mph 87 % 0.00 in 0.00 W/m2
02:42 38.4 °F 34.9 °F 30.28 in Calm   7.0 mph 87 % 0.00 in 0.00 W/m2
02:47 38.3 °F 34.8 °F 30.28 in ESE 6.0 mph 6.0 mph 87 % 0.00 in 0.00 W/m2
02:52 38.3 °F 34.8 °F 30.28 in ESE 8.0 mph 8.0 mph 87 % 0.00 in 0.00 W/m2
02:57 38.3 °F 34.8 °F 30.27 in ESE 7.0 mph 8.0 mph 87 % 0.00 in 0.00 W/m2
03:02 38.2 °F 34.7 °F 30.27 in ESE 2.0 mph 11.0 mph 87 % 0.00 in 0.00 W/m2
03:07 38.2 °F 34.7 °F 30.27 in ESE 4.0 mph 12.0 mph 87 % 0.00 in 0.00 W/m2
03:12 38.1 °F 36.0 °F 30.28 in ESE 6.0 mph 9.0 mph 92 % 0.00 in 0.00 W/m2
03:17 38.0 °F 34.5 °F 30.27 in ESE 6.0 mph 8.0 mph 87 % 0.00 in 0.00 W/m2
03:22 38.0 °F 34.5 °F 30.27 in ESE 6.0 mph 11.0 mph 87 % 0.00 in 0.00 W/m2
03:27 38.0 °F 34.2 °F 30.27 in ESE 7.0 mph 12.0 mph 86 % 0.00 in 0.00 W/m2
03:32 37.9 °F 34.4 °F 30.27 in ESE 6.0 mph 8.0 mph 87 % 0.00 in 0.00 W/m2
03:37 37.9 °F 34.1 °F 30.27 in ESE 8.0 mph 12.0 mph 86 % 0.00 in 0.00 W/m2
03:42 37.9 °F 34.1 °F 30.27 in ESE 1.0 mph 9.0 mph 86 % 0.00 in 0.00 W/m2
03:47 37.9 °F 34.1 °F 30.27 in ESE 8.0 mph 12.0 mph 86 % 0.00 in 0.00 W/m2
03:52 37.9 °F 34.1 °F 30.27 in East 7.0 mph 12.0 mph 86 % 0.00 in 0.00 W/m2
03:57 37.9 °F 34.1 °F 30.27 in ESE 4.0 mph 8.0 mph 86 % 0.00 in 0.00 W/m2
04:02 37.9 °F 34.4 °F 30.27 in East 4.0 mph 15.0 mph 87 % 0.00 in 0.00 W/m2
04:07 37.9 °F 34.4 °F 30.27 in East 2.0 mph 14.0 mph 87 % 0.00 in 0.00 W/m2
04:12 37.9 °F 34.4 °F 30.27 in ESE 5.0 mph 12.0 mph 87 % 0.00 in 0.00 W/m2
04:17 37.8 °F 34.3 °F 30.27 in Calm   9.0 mph 87 % 0.00 in 0.00 W/m2
04:22 37.8 °F 34.0 °F 30.27 in ESE 7.0 mph 8.0 mph 86 % 0.00 in 0.00 W/m2
04:27 37.8 °F 34.0 °F 30.27 in ESE 5.0 mph 8.0 mph 86 % 0.00 in 0.00 W/m2
04:32 37.9 °F 34.1 °F 30.27 in ESE 2.0 mph 12.0 mph 86 % 0.00 in 0.00 W/m2
04:37 37.9 °F 34.4 °F 30.27 in ESE 7.0 mph 11.0 mph 87 % 0.00 in 0.00 W/m2
04:42 37.9 °F 34.4 °F 30.27 in ESE 8.0 mph 8.0 mph 87 % 0.00 in 0.00 W/m2
04:47 37.8 °F 34.3 °F 30.27 in Calm   8.0 mph 87 % 0.00 in 0.00 W/m2
04:52 37.8 °F 34.3 °F 30.27 in ESE 8.0 mph 8.0 mph 87 % 0.00 in 0.00 W/m2
04:57 37.7 °F 33.9 °F 30.27 in ESE 4.0 mph 11.0 mph 86 % 0.00 in 0.00 W/m2
05:02 37.7 °F 33.9 °F 30.27 in East 5.0 mph 14.0 mph 86 % 0.00 in 0.00 W/m2
05:07 37.7 °F 34.2 °F 30.26 in ESE 5.0 mph 12.0 mph 87 % 0.00 in 0.00 W/m2
05:12 37.6 °F 34.1 °F 30.26 in East 6.0 mph 12.0 mph 87 % 0.00 in 0.00 W/m2
05:17 37.5 °F 33.7 °F 30.26 in ESE 7.0 mph 13.0 mph 86 % 0.00 in 0.00 W/m2
05:22 37.5 °F 33.7 °F 30.26 in ESE 6.0 mph 11.0 mph 86 % 0.00 in 0.00 W/m2
05:27 37.6 °F 33.8 °F 30.26 in East 6.0 mph 12.0 mph 86 % 0.00 in 0.00 W/m2
05:32 37.6 °F 33.8 °F 30.26 in ESE 7.0 mph 9.0 mph 86 % 0.00 in 0.00 W/m2
05:37 37.6 °F 33.8 °F 30.26 in ESE 4.0 mph 12.0 mph 86 % 0.00 in 0.00 W/m2
05:42 37.6 °F 33.8 °F 30.27 in ESE 5.0 mph 12.0 mph 86 % 0.00 in 0.00 W/m2
05:47 37.6 °F 33.5 °F 30.27 in ESE 6.0 mph 13.0 mph 85 % 0.00 in 0.00 W/m2
05:52 37.6 °F 33.5 °F 30.27 in ESE 4.0 mph 13.0 mph 85 % 0.00 in 0.00 W/m2
05:57 37.6 °F 33.5 °F 30.26 in ESE 9.0 mph 13.0 mph 85 % 0.00 in 0.00 W/m2
06:02 37.6 °F 33.5 °F 30.26 in East 5.0 mph 14.0 mph 85 % 0.00 in 0.00 W/m2
06:07 37.6 °F 33.5 °F 30.26 in East 4.0 mph 13.0 mph 85 % 0.00 in 0.00 W/m2
06:13 37.6 °F 33.5 °F 30.27 in ESE 11.0 mph 12.0 mph 85 % 0.00 in 0.00 W/m2
06:18 37.6 °F 33.2 °F 30.27 in East 1.0 mph 13.0 mph 84 % 0.00 in 0.00 W/m2
06:23 37.6 °F 32.9 °F 30.27 in East 4.0 mph 8.0 mph 83 % 0.00 in 0.00 W/m2
06:28 37.6 °F 33.2 °F 30.27 in ESE 8.0 mph 8.0 mph 84 % 0.00 in 0.00 W/m2
06:33 37.6 °F 32.9 °F 30.27 in ESE 7.0 mph 13.0 mph 83 % 0.00 in 0.00 W/m2
06:38 37.6 °F 32.9 °F 30.27 in East 13.0 mph 13.0 mph 83 % 0.00 in 5.00 W/m2
06:43 37.6 °F 32.9 °F 30.27 in ESE 4.0 mph 11.0 mph 83 % 0.00 in 9.00 W/m2
06:48 37.6 °F 32.9 °F 30.27 in ESE 5.0 mph 15.0 mph 83 % 0.00 in 12.00 W/m2
06:53 37.6 °F 32.9 °F 30.27 in ESE 6.0 mph 13.0 mph 83 % 0.00 in 16.00 W/m2
06:58 37.6 °F 32.9 °F 30.27 in East 8.0 mph 13.0 mph 83 % 0.00 in 19.00 W/m2
07:03 37.7 °F 33.0 °F 30.27 in ESE 1.0 mph 12.0 mph 83 % 0.00 in 18.00 W/m2
07:08 37.8 °F 33.1 °F 30.27 in ESE 6.0 mph 12.0 mph 83 % 0.00 in 23.00 W/m2
07:13 37.9 °F 33.2 °F 30.27 in ESE 4.0 mph 9.0 mph 83 % 0.00 in 33.00 W/m2
07:18 38.0 °F 33.3 °F 30.27 in East 5.0 mph 12.0 mph 83 % 0.00 in 47.00 W/m2
07:23 38.2 °F 33.2 °F 30.27 in East 13.0 mph 13.0 mph 82 % 0.00 in 47.00 W/m2
07:28 38.3 °F 33.0 °F 30.28 in ESE 4.0 mph 11.0 mph 81 % 0.00 in 49.00 W/m2
07:33 38.4 °F 32.8 °F 30.28 in ESE 7.0 mph 12.0 mph 80 % 0.00 in 49.00 W/m2
07:38 38.6 °F 32.7 °F 30.28 in East 2.0 mph 13.0 mph 79 % 0.00 in 81.00 W/m2
07:43 38.8 °F 32.9 °F 30.28 in ESE 5.0 mph 9.0 mph 79 % 0.00 in 72.00 W/m2
07:48 39.1 °F 33.5 °F 30.28 in ESE 7.0 mph 11.0 mph 80 % 0.00 in 69.00 W/m2
07:53 39.2 °F 33.2 °F 30.28 in ESE 6.0 mph 12.0 mph 79 % 0.00 in 58.00 W/m2
07:58 39.4 °F 33.4 °F 30.28 in Calm   11.0 mph 79 % 0.00 in 76.00 W/m2
08:03 39.6 °F 33.3 °F 30.28 in East 9.0 mph 11.0 mph 78 % 0.00 in 84.00 W/m2
08:08 39.8 °F 33.2 °F 30.27 in ESE 2.0 mph 11.0 mph 77 % 0.00 in 105.00 W/m2
08:13 39.9 °F 33.0 °F 30.27 in ESE 8.0 mph 11.0 mph 76 % 0.00 in 130.00 W/m2
08:18 40.1 °F 32.5 °F 30.27 in ESE 7.0 mph 11.0 mph 74 % 0.00 in 146.00 W/m2
08:23 40.3 °F 32.7 °F 30.27 in East 8.0 mph 11.0 mph 74 % 0.00 in 209.00 W/m2
08:28 40.5 °F 32.9 °F 30.27 in ESE 6.0 mph 13.0 mph 74 % 0.00 in 257.00 W/m2
08:33 40.7 °F 32.7 °F 30.27 in Calm   12.0 mph 73 % 0.00 in 155.00 W/m2
08:38 40.9 °F 32.9 °F 30.27 in Calm   11.0 mph 73 % 0.00 in 111.00 W/m2
08:43 41.1 °F 32.8 °F 30.27 in Calm   1.0 mph 72 % 0.00 in 104.00 W/m2
08:48 41.3 °F 32.6 °F 30.27 in Calm   1.0 mph 71 % 0.00 in 105.00 W/m2
08:53 41.6 °F 33.6 °F 30.28 in Calm   11.0 mph 73 % 0.00 in 104.00 W/m2
08:58 41.7 °F 34.0 °F 30.28 in Calm   1.0 mph 74 % 0.00 in 109.00 W/m2
09:03 41.9 °F 33.5 °F 30.28 in Calm   7.0 mph 72 % 0.00 in 146.00 W/m2
09:08 42.0 °F 34.3 °F 30.27 in Calm   1.0 mph 74 % 0.00 in 221.00 W/m2
09:13 42.2 °F 34.2 °F 30.27 in Calm   1.0 mph 73 % 0.00 in 320.00 W/m2
09:18 42.3 °F 33.9 °F 30.27 in ESE 1.0 mph 11.0 mph 72 % 0.00 in 381.00 W/m2
09:23 42.5 °F 34.1 °F 30.27 in ESE 1.0 mph 4.0 mph 72 % 0.00 in 390.00 W/m2
09:28 42.7 °F 33.2 °F 30.28 in Calm   2.0 mph 69 % 0.00 in 385.00 W/m2
09:33 43.0 °F 32.8 °F 30.28 in Calm   8.0 mph 67 % 0.00 in 352.00 W/m2
09:38 43.3 °F 32.7 °F 30.27 in Calm   1.0 mph 66 % 0.00 in 295.00 W/m2
09:43 43.9 °F 34.0 °F 30.27 in Calm   2.0 mph 68 % 0.00 in 338.00 W/m2
09:48 44.2 °F 32.8 °F 30.27 in Calm   2.0 mph 64 % 0.00 in 330.00 W/m2
09:54 44.6 °F 32.8 °F 30.27 in ESE 1.0 mph 2.0 mph 63 % 0.00 in 320.00 W/m2
09:59 44.9 °F 31.9 °F 30.28 in Calm   1.0 mph 60 % 0.00 in 348.00 W/m2
10:04 45.2 °F 31.3 °F 30.28 in Calm     58 % 0.00 in 329.00 W/m2
10:09 45.7 °F 31.8 °F 30.27 in Calm     58 % 0.00 in 378.00 W/m2
10:14 46.0 °F 31.2 °F 30.28 in Calm   2.0 mph 56 % 0.00 in 352.00 W/m2
10:19 46.3 °F 29.6 °F 30.27 in ESE 1.0 mph 2.0 mph 52 % 0.00 in 299.00 W/m2
10:21 46.4 °F 30.2 °F 30.27 in Calm   1.0 mph 53 % 0.00 in 853.00 W/m2
10:26 46.6 °F 31.3 °F 30.27 in ESE 1.0 mph 1.0 mph 55 % 0.00 in 710.00 W/m2
10:31 46.8 °F 31.5 °F 30.27 in Calm   9.0 mph 55 % 0.00 in 949.00 W/m2
10:36 47.6 °F 31.3 °F 30.27 in SE 1.0 mph 1.0 mph 53 % 0.00 in 594.00 W/m2
10:41 48.2 °F 32.3 °F 30.27 in Calm   5.0 mph 54 % 0.00 in 766.00 W/m2
10:46 48.5 °F 33.5 °F 30.27 in Calm   2.0 mph 56 % 0.00 in 856.00 W/m2
10:51 49.0 °F 33.1 °F 30.27 in Calm     54 % 0.00 in 821.00 W/m2
10:56 49.4 °F 34.8 °F 30.27 in Calm     57 % 0.00 in 789.00 W/m2
11:01 49.8 °F 35.6 °F 30.27 in Calm     58 % 0.00 in 796.00 W/m2
11:06 50.1 °F 37.6 °F 30.27 in SE 1.0 mph 2.0 mph 62 % 0.00 in 802.00 W/m2
11:11 50.4 °F 39.1 °F 30.26 in SE 1.0 mph 1.0 mph 65 % 0.00 in 812.00 W/m2
11:16 50.6 °F 38.9 °F 30.26 in SSE 2.0 mph 5.0 mph 64 % 0.00 in 821.00 W/m2
11:21 50.8 °F 39.1 °F 30.26 in Calm   1.0 mph 64 % 0.00 in 831.00 W/m2
11:26 51.2 °F 39.8 °F 30.26 in SSE 4.0 mph 4.0 mph 65 % 0.00 in 840.00 W/m2
11:31 51.4 °F 40.0 °F 30.26 in Calm   1.0 mph 65 % 0.00 in 847.00 W/m2
11:36 51.8 °F 39.6 °F 30.25 in Calm   4.0 mph 63 % 0.00 in 858.00 W/m2
11:41 52.1 °F 39.9 °F 30.26 in SSE 4.0 mph 5.0 mph 63 % 0.00 in 888.00 W/m2
11:46 52.4 °F 39.4 °F 30.26 in SSE 6.0 mph 6.0 mph 61 % 0.00 in 933.00 W/m2
11:51 52.7 °F 39.2 °F 30.25 in Calm     60 % 0.00 in 243.00 W/m2
11:56 52.9 °F 39.8 °F 30.25 in Calm     61 % 0.00 in 853.00 W/m2
12:01 53.0 °F 38.6 °F 30.25 in WSW 1.0 mph 2.0 mph 58 % 0.00 in 664.00 W/m2
12:06 53.3 °F 38.5 °F 30.25 in Calm   2.0 mph 57 % 0.00 in 970.00 W/m2
12:11 53.6 °F 40.1 °F 30.25 in Calm     60 % 0.00 in 1035.00 W/m2
12:16 54.0 °F 38.7 °F 30.25 in SW 1.0 mph 2.0 mph 56 % 0.00 in 230.00 W/m2
12:21 54.2 °F 40.2 °F 30.25 in SW 2.0 mph 5.0 mph 59 % 0.00 in 1063.00 W/m2
12:26 54.5 °F 40.5 °F 30.24 in SW 5.0 mph 5.0 mph 59 % 0.00 in 1102.00 W/m2
12:31 54.8 °F 41.2 °F 30.24 in SW 1.0 mph 2.0 mph 60 % 0.00 in 986.00 W/m2
12:36 55.3 °F 41.2 °F 30.24 in Calm   1.0 mph 59 % 0.00 in 1030.00 W/m2
12:41 55.6 °F 39.7 °F 30.24 in Calm     55 % 0.00 in 308.00 W/m2
12:46 55.4 °F 38.6 °F 30.23 in Calm   5.0 mph 53 % 0.00 in 538.00 W/m2
12:52 55.4 °F 39.5 °F 30.23 in West 3.0 mph 4.0 mph 55 % 0.00 in 902.00 W/m2
12:57 55.7 °F 39.3 °F 30.23 in Calm   1.0 mph 54 % 0.00 in 357.00 W/m2
13:02 55.6 °F 38.8 °F 30.23 in NW 1.0 mph 5.0 mph 53 % 0.00 in 972.00 W/m2
13:07 55.6 °F 40.6 °F 30.23 in WNW 3.0 mph 3.0 mph 57 % 0.00 in 947.00 W/m2
13:12 55.8 °F 40.4 °F 30.23 in WNW 2.0 mph 9.0 mph 56 % 0.00 in 1042.00 W/m2
13:17 56.0 °F 39.6 °F 30.23 in West 4.0 mph 4.0 mph 54 % 0.00 in 995.00 W/m2
13:22 56.0 °F 39.1 °F 30.23 in Calm   3.0 mph 53 % 0.00 in 729.00 W/m2
13:27 56.0 °F 40.1 °F 30.23 in WNW 1.0 mph 2.0 mph 55 % 0.00 in 1034.00 W/m2
13:32 56.3 °F 40.4 °F 30.22 in NW 2.0 mph 6.0 mph 55 % 0.00 in 965.00 W/m2
13:37 56.7 °F 40.3 °F 30.22 in WSW 6.0 mph 11.0 mph 54 % 0.00 in 937.00 W/m2
13:42 57.1 °F 41.1 °F 30.22 in WSW 5.0 mph 11.0 mph 55 % 0.00 in 921.00 W/m2
13:47 57.8 °F 42.2 °F 30.22 in SSE 2.0 mph 6.0 mph 56 % 0.00 in 946.00 W/m2
13:52 58.2 °F 41.2 °F 30.22 in WSW 3.0 mph 3.0 mph 53 % 0.00 in 942.00 W/m2
13:57 58.5 °F 41.9 °F 30.23 in SW 7.0 mph 9.0 mph 54 % 0.00 in 997.00 W/m2
14:02 58.7 °F 42.6 °F 30.23 in WSW 7.0 mph 8.0 mph 55 % 0.00 in 900.00 W/m2
14:07 58.6 °F 42.0 °F 30.23 in Calm   4.0 mph 54 % 0.00 in 679.00 W/m2
14:12 58.1 °F 41.1 °F 30.22 in West 1.0 mph 10.0 mph 53 % 0.00 in 944.00 W/m2
14:17 58.0 °F 41.9 °F 30.22 in West 1.0 mph 10.0 mph 55 % 0.00 in 807.00 W/m2
14:22 58.0 °F 41.9 °F 30.22 in Calm     55 % 0.00 in 868.00 W/m2
14:27 57.9 °F 42.3 °F 30.22 in Calm   10.0 mph 56 % 0.00 in 874.00 W/m2
14:32 57.5 °F 40.5 °F 30.21 in Calm     53 % 0.00 in 795.00 W/m2
14:37 57.2 °F 41.7 °F 30.20 in Calm   6.0 mph 56 % 0.00 in 603.00 W/m2
14:42 57.1 °F 40.2 °F 30.20 in WSW 8.0 mph 10.0 mph 53 % 0.00 in 868.00 W/m2
14:47 56.9 °F 40.4 °F 30.20 in West 11.0 mph 11.0 mph 54 % 0.00 in 691.00 W/m2
14:52 56.5 °F 40.1 °F 30.20 in Calm   8.0 mph 54 % 0.00 in 833.00 W/m2
14:57 56.5 °F 41.5 °F 30.20 in Calm   8.0 mph 57 % 0.00 in 668.00 W/m2
15:02 56.4 °F 40.5 °F 30.19 in SW 9.0 mph 14.0 mph 55 % 0.00 in 777.00 W/m2
15:07 56.4 °F 40.9 °F 30.19 in SW 7.0 mph 9.0 mph 56 % 0.00 in 803.00 W/m2
15:12 56.5 °F 40.1 °F 30.19 in West 4.0 mph 6.0 mph 54 % 0.00 in 751.00 W/m2
15:17 56.4 °F 40.5 °F 30.19 in Calm   6.0 mph 55 % 0.00 in 729.00 W/m2
15:22 56.5 °F 41.5 °F 30.19 in WSW 8.0 mph 8.0 mph 57 % 0.00 in 703.00 W/m2
15:27 56.6 °F 40.6 °F 30.19 in Calm   2.0 mph 55 % 0.00 in 680.00 W/m2
15:32 56.6 °F 41.1 °F 30.19 in Calm   7.0 mph 56 % 0.00 in 719.00 W/m2
15:37 56.5 °F 40.5 °F 30.19 in NW 6.0 mph 8.0 mph 55 % 0.00 in 717.00 W/m2
15:42 56.4 °F 40.9 °F 30.18 in WNW 2.0 mph 4.0 mph 56 % 0.00 in 712.00 W/m2
15:47 56.2 °F 41.6 °F 30.18 in Calm   1.0 mph 58 % 0.00 in 687.00 W/m2
15:52 56.0 °F 41.0 °F 30.18 in West 3.0 mph 10.0 mph 57 % 0.00 in 668.00 W/m2
15:57 55.9 °F 40.5 °F 30.18 in WNW 5.0 mph 5.0 mph 56 % 0.00 in 663.00 W/m2
16:02 55.7 °F 41.2 °F 30.18 in NW 3.0 mph 8.0 mph 58 % 0.00 in 643.00 W/m2
16:07 55.6 °F 40.2 °F 30.18 in Calm   8.0 mph 56 % 0.00 in 626.00 W/m2
16:12 55.4 °F 40.4 °F 30.18 in Calm   3.0 mph 57 % 0.00 in 517.00 W/m2
16:17 55.4 °F 41.3 °F 30.18 in Calm   3.0 mph 59 % 0.00 in 598.00 W/m2
16:22 55.5 °F 41.9 °F 30.18 in Calm   6.0 mph 60 % 0.00 in 573.00 W/m2
16:28 55.5 °F 41.0 °F 30.18 in Calm   6.0 mph 58 % 0.00 in 578.00 W/m2
16:33 55.6 °F 42.0 °F 30.17 in NW 4.0 mph 10.0 mph 60 % 0.00 in 571.00 W/m2
16:38 55.8 °F 42.1 °F 30.17 in Calm   2.0 mph 60 % 0.00 in 466.00 W/m2
16:43 55.8 °F 42.1 °F 30.17 in West 7.0 mph 11.0 mph 60 % 0.00 in 441.00 W/m2
16:48 55.9 °F 42.2 °F 30.17 in Calm   6.0 mph 60 % 0.00 in 492.00 W/m2
16:53 55.8 °F 41.3 °F 30.17 in NW 5.0 mph 9.0 mph 58 % 0.00 in 504.00 W/m2
16:58 55.5 °F 41.9 °F 30.17 in WNW 1.0 mph 5.0 mph 60 % 0.00 in 443.00 W/m2
17:03 55.3 °F 41.2 °F 30.17 in Calm   5.0 mph 59 % 0.00 in 410.00 W/m2
17:08 55.2 °F 41.6 °F 30.17 in Calm   4.0 mph 60 % 0.00 in 459.00 W/m2
17:13 55.1 °F 41.5 °F 30.17 in Calm   11.0 mph 60 % 0.00 in 427.00 W/m2
17:18 55.1 °F 41.9 °F 30.17 in West 4.0 mph 7.0 mph 61 % 0.00 in 410.00 W/m2
17:23 55.0 °F 41.0 °F 30.17 in Calm   1.0 mph 59 % 0.00 in 396.00 W/m2
17:28 55.0 °F 42.2 °F 30.17 in Calm   5.0 mph 62 % 0.00 in 373.00 W/m2
17:33 54.9 °F 41.7 °F 30.16 in WNW 5.0 mph 7.0 mph 61 % 0.00 in 359.00 W/m2
17:38 54.9 °F 43.0 °F 30.16 in Calm   6.0 mph 64 % 0.00 in 338.00 W/m2
17:43 54.8 °F 41.6 °F 30.16 in WNW 2.0 mph 2.0 mph 61 % 0.00 in 316.00 W/m2
17:48 54.6 °F 41.9 °F 30.16 in Calm   6.0 mph 62 % 0.00 in 301.00 W/m2
17:53 54.5 °F 41.3 °F 30.16 in Calm   7.0 mph 61 % 0.00 in 287.00 W/m2
17:58 54.5 °F 41.8 °F 30.16 in Calm   5.0 mph 62 % 0.00 in 237.00 W/m2
18:03 54.4 °F 42.1 °F 30.16 in Calm   8.0 mph 63 % 0.00 in 227.00 W/m2
18:08 54.4 °F 40.8 °F 30.15 in Calm   7.0 mph 60 % 0.00 in 178.00 W/m2
18:13 54.1 °F 40.5 °F 30.15 in WNW 6.0 mph 6.0 mph 60 % 0.00 in 165.00 W/m2
18:18 53.9 °F 41.2 °F 30.15 in West 6.0 mph 6.0 mph 62 % 0.00 in 167.00 W/m2
18:23 53.7 °F 40.6 °F 30.15 in NW 2.0 mph 5.0 mph 61 % 0.00 in 156.00 W/m2
18:28 53.4 °F 40.7 °F 30.15 in Calm   2.0 mph 62 % 0.00 in 130.00 W/m2
18:33 53.2 °F 40.5 °F 30.15 in WNW 3.0 mph 3.0 mph 62 % 0.00 in 114.00 W/m2
18:38 53.1 °F 40.8 °F 30.15 in Calm   3.0 mph 63 % 0.00 in 93.00 W/m2
18:43 53.0 °F 41.2 °F 30.15 in Calm   2.0 mph 64 % 0.00 in 76.00 W/m2
18:49 52.8 °F 41.0 °F 30.15 in Calm   2.0 mph 64 % 0.00 in 65.00 W/m2
18:54 52.6 °F 40.8 °F 30.15 in Calm     64 % 0.00 in 49.00 W/m2
18:59 52.4 °F 41.8 °F 30.15 in Calm     67 % 0.00 in 42.00 W/m2
19:04 52.4 °F 42.9 °F 30.15 in Calm     70 % 0.00 in 39.00 W/m2
19:09 52.1 °F 43.0 °F 30.15 in Calm     71 % 0.00 in 32.00 W/m2
19:14 51.7 °F 43.3 °F 30.15 in Calm     73 % 0.00 in 25.00 W/m2
19:19 51.2 °F 42.9 °F 30.15 in Calm     73 % 0.00 in 21.00 W/m2
19:24 50.8 °F 42.5 °F 30.15 in Calm     73 % 0.00 in 16.00 W/m2
19:29 50.5 °F 42.2 °F 30.15 in Calm     73 % 0.00 in 11.00 W/m2
19:34 50.2 °F 41.9 °F 30.15 in Calm     73 % 0.00 in 5.00 W/m2
19:39 49.8 °F 42.2 °F 30.15 in Calm     75 % 0.00 in 0.00 W/m2
19:44 49.3 °F 41.7 °F 30.15 in Calm     75 % 0.00 in 0.00 W/m2
19:49 48.9 °F 41.7 °F 30.15 in Calm     76 % 0.00 in 0.00 W/m2
19:54 48.7 °F 41.5 °F 30.15 in Calm     76 % 0.00 in 0.00 W/m2
19:59 48.2 °F 41.0 °F 30.15 in Calm     76 % 0.00 in 0.00 W/m2
20:04 47.7 °F 41.2 °F 30.15 in Calm     78 % 0.00 in 0.00 W/m2
20:09 47.3 °F 41.1 °F 30.15 in Calm     79 % 0.00 in 0.00 W/m2
20:14 47.0 °F 40.8 °F 30.15 in Calm     79 % 0.00 in 0.00 W/m2
20:19 46.8 °F 40.6 °F 30.14 in Calm     79 % 0.00 in 0.00 W/m2
20:24 46.5 °F 40.7 °F 30.14 in Calm     80 % 0.00 in 0.00 W/m2
20:29 46.4 °F 40.9 °F 30.15 in Calm     81 % 0.00 in 0.00 W/m2
20:34 46.3 °F 40.5 °F 30.15 in Calm     80 % 0.00 in 0.00 W/m2
20:39 46.1 °F 40.6 °F 30.15 in Calm   1.0 mph 81 % 0.00 in 0.00 W/m2
20:45 46.0 °F 40.5 °F 30.15 in Calm     81 % 0.00 in 0.00 W/m2
20:50 46.0 °F 40.5 °F 30.15 in Calm     81 % 0.00 in 0.00 W/m2
20:55 45.9 °F 40.4 °F 30.15 in Calm     81 % 0.00 in 0.00 W/m2
21:00 45.8 °F 40.3 °F 30.15 in Calm     81 % 0.00 in 0.00 W/m2
21:05 45.8 °F 40.3 °F 30.15 in Calm     81 % 0.00 in 0.00 W/m2
21:10 45.7 °F 40.2 °F 30.15 in Calm     81 % 0.00 in 0.00 W/m2
21:15 45.6 °F 40.1 °F 30.15 in Calm     81 % 0.00 in 0.00 W/m2
21:20 45.6 °F 40.1 °F 30.15 in Calm     81 % 0.00 in 0.00 W/m2
21:25 45.6 °F 40.4 °F 30.15 in Calm     82 % 0.00 in 0.00 W/m2
21:30 45.6 °F 40.1 °F 30.15 in Calm     81 % 0.00 in 0.00 W/m2
21:35 45.5 °F 40.0 °F 30.15 in Calm     81 % 0.00 in 0.00 W/m2
21:40 45.5 °F 40.0 °F 30.15 in Calm     81 % 0.00 in 0.00 W/m2
21:45 45.5 °F 40.0 °F 30.15 in Calm     81 % 0.00 in 0.00 W/m2
21:50 45.6 °F 40.1 °F 30.15 in Calm     81 % 0.00 in 0.00 W/m2
21:55 45.5 °F 40.0 °F 30.15 in Calm     81 % 0.00 in 0.00 W/m2
22:00 45.4 °F 39.9 °F 30.15 in Calm     81 % 0.00 in 0.00 W/m2
22:05 45.4 °F 39.9 °F 30.15 in Calm     81 % 0.00 in 0.00 W/m2
22:10 45.3 °F 39.8 °F 30.15 in Calm     81 % 0.00 in 0.00 W/m2
22:15 45.2 °F 39.7 °F 30.14 in Calm     81 % 0.00 in 0.00 W/m2
22:20 45.2 °F 40.0 °F 30.14 in Calm     82 % 0.00 in 0.00 W/m2
22:25 45.2 °F 40.0 °F 30.14 in Calm     82 % 0.00 in 0.00 W/m2
22:30 45.3 °F 40.5 °F 30.14 in Calm   4.0 mph 83 % 0.00 in 0.00 W/m2
22:35 45.3 °F 40.5 °F 30.13 in NE 1.0 mph 3.0 mph 83 % 0.00 in 0.00 W/m2
22:40 45.3 °F 40.5 °F 30.13 in NE 2.0 mph 3.0 mph 83 % 0.00 in 0.00 W/m2
22:44 45.2 °F 40.3 °F 30.13 in NE 1.0 mph 3.0 mph 83 % 0.00 in 0.00 W/m2
22:49 45.3 °F 40.5 °F 30.13 in Calm   3.0 mph 83 % 0.00 in 0.00 W/m2
22:54 45.3 °F 40.5 °F 30.12 in Calm   2.0 mph 83 % 0.00 in 0.00 W/m2
22:59 45.3 °F 40.5 °F 30.12 in ENE 2.0 mph 5.0 mph 83 % 0.00 in 0.00 W/m2
23:04 45.3 °F 40.5 °F 30.12 in Calm   4.0 mph 83 % 0.00 in 0.00 W/m2
23:09 45.2 °F 40.3 °F 30.12 in Calm   5.0 mph 83 % 0.00 in 0.00 W/m2
23:14 45.2 °F 40.3 °F 30.12 in Calm     83 % 0.00 in 0.00 W/m2
23:19 45.2 °F 40.3 °F 30.13 in Calm     83 % 0.00 in 0.00 W/m2
23:24 45.3 °F 40.8 °F 30.12 in Calm   5.0 mph 84 % 0.00 in 0.00 W/m2
23:29 45.2 °F 40.3 °F 30.12 in Calm   2.0 mph 83 % 0.00 in 0.00 W/m2
23:34 45.3 °F 40.5 °F 30.12 in East 4.0 mph 4.0 mph 83 % 0.00 in 0.00 W/m2
23:39 45.3 °F 40.5 °F 30.12 in East 2.0 mph 6.0 mph 83 % 0.00 in 0.00 W/m2
23:44 45.3 °F 40.5 °F 30.12 in Calm   6.0 mph 83 % 0.00 in 0.00 W/m2
23:49 45.4 °F 40.5 °F 30.12 in Calm   9.0 mph 83 % 0.00 in 0.00 W/m2
23:54 45.4 °F 40.5 °F 30.12 in Calm   5.0 mph 83 % 0.00 in 0.00 W/m2
23:59 45.4 °F 40.5 °F 30.12 in Calm   2.0 mph 83 % 0.00 in 0.00 W/m2
Juneau County Weather
Compliments of Weather Underground - 4.5 mb
 WU-history PHP script courtesy of   Juneau County Weather.
powered by Cumulus v1.9.3 (1059)
Ambient Weather VWS v14.00
Top Contact Website Map Copyright © 2007 - 2018 Foresthillweather.com Never base important decisions on this or any weather information obtained from the Internet